Regional Weather Roundup
Issued by NWS

Home | Current Version | Previous Version | Text Only | Print | Product List | Glossary On
Versions: 1 2 3 4 5 6 7 8 9 10 11 12 13 14 15 16 17 18 19 20 21 22 23 24 25 26 27 28 29 30 31 32 33 34 35 36 37 38 39 40 41 42 43 44 45 46 47 48 49 50
000
ASUS45 KPSR 190910
RWRAZ

ARIZONA REGIONAL HOURLY WEATHER ROUNDUP
NATIONAL WEATHER SERVICE PHOENIX AZ
200 AM MST SAT APR 19 2014

NOTE: FAIR INDICATES FEW OR NO CLOUDS BELOW 12,000 FEET WITH NO
SIGNIFICANT WEATHER AND/OR OBSTRUCTIONS TO VISIBILITY.

AZZ001>003-036-191000-
NORTHWEST ARIZONA

CITY           SKY/WX    TMP DP  RH WIND       PRES   REMARKS
BULLHEAD CITY  CLOUDY    72  45  37 SE3       29.90S
KINGMAN        CLOUDY    58  44  60 E5        29.99S
$$

AZZ004>008-015-016-018-191000-
NORTH CENTRAL ARIZONA

CITY           SKY/WX    TMP DP  RH WIND       PRES   REMARKS
GRAND CANYON   CLOUDY    43  41  93 NE5       30.11F
WILLIAMS       PTCLDY    41  37  87 CALM      30.17F
PRESCOTT       PTCLDY    45  41  86 CALM      30.04F
FLAGSTAFF      MOCLDY    36  34  92 CALM      30.11F FOG
PAYSON         MOCLDY    50  37  62 CALM      30.07F
PAGE           CLOUDY    58  40  51 SW9       30.01S
$$

AZZ009>014-017-191000-
NORTHEAST ARIZONA

CITY           SKY/WX    TMP DP  RH WIND       PRES   REMARKS
WINSLOW        PTCLDY    46  40  79 E5        30.07F
SAINT JOHNS    PTCLDY    41  39  93 CALM      30.08F
WINDOW ROCK    CLEAR     37  30  75 CALM      30.13F
SHOW LOW       PTCLDY    37  30  75 S5        30.13S WCI  34
$$

AZZ023-191000-
GREATER PHOENIX AREA

CITY           SKY/WX    TMP DP  RH WIND       PRES   REMARKS
PHOENIX        PTCLDY    68  44  42 CALM      29.86S
BUCKEYE          N/A     64  46  52 N8        29.88S
LUKE AFB       NOT AVBL
DEER VALLEY    CLEAR     62  39  42 CALM      29.88F
SCOTTSDALE     PTCLDY    67  42  40 CALM      29.89F
MESA-GATEWAY   CLOUDY    63  41  45 CALM      29.89F
$$

AZZ027-028-191000-
SOUTHWEST MARICOPA COUNTY AND PINAL COUNTY

CITY           SKY/WX    TMP DP  RH WIND       PRES   REMARKS
CASA GRANDE    MOCLDY    63  39  42 CALM      29.88F
$$

AZZ503-504-507>509-191000-
SOUTHEAST ARIZONA

CITY           SKY/WX    TMP DP  RH WIND       PRES   REMARKS
TUCSON         CLOUDY    63  43  48 SE8       29.95F
DAVIS-MONTHAN  MOCLDY    64  45  51 VRB2      29.93F
NOGALES        PTCLDY    56  44  64 E7        29.98S
SIERRA VISTA   MOCLDY    54  46  74 W3        30.01F
DOUGLAS        MOCLDY    50  47  89 CALM      30.01S
SAFFORD        CLOUDY    56  41  57 N3        29.95F
$$

AZZ020-021-025-026-031-191000-
SOUTHWEST ARIZONA

CITY           SKY/WX    TMP DP  RH WIND       PRES   REMARKS
YUMA           PTCLDY    68  47  46 NE6       29.83F
$$

CAZ031-033-041-043-047-048-061-191000-
SOUTHERN CALIFORNIA

CITY           SKY/WX    TMP DP  RH WIND       PRES   REMARKS
DOWNTOWN L.A.  CLEAR     60  53  77 CALM      29.94S
L.A. AIRPORT   MOCLDY    60  53  77 SE3       29.95S
SAN DIEGO      CLOUDY    63  54  72 NW5       29.96F
BURBANK        CLEAR     58  49  72 CALM      29.94S
ONTARIO        MOCLDY    58  50  75 W5        29.95S
RIVERSIDE      PTCLDY    59  51  75 CALM      29.95S
PALM SPRINGS   PTCLDY    68  51  54 NW9       29.88S
EL CENTRO NAS  PTCLDY    65  52  62 NE8       29.81F
IMPERIAL       MOCLDY    70  52  52 E7        29.81F
BLYTHE         CLOUDY    71  48  43 N6        29.86F
NEEDLES        CLOUDY    74  44  34 S3        29.89F
$$

NVZ020-UTZ003-191000-
SOUTHERN NEVADA-UTAH

CITY           SKY/WX    TMP DP  RH WIND       PRES   REMARKS
LAS VEGAS      MOCLDY    67  39  35 S16       29.86R
SALT LAKE CITY MOCLDY    48  46  93 CALM      29.97S
$$

NMZ009-TXZ055-191000-
NEW MEXICO-WEST TEXAS

CITY           SKY/WX    TMP DP  RH WIND       PRES   REMARKS
ALBUQUERQUE    CLOUDY    58  44  60 NE3       30.08F
EL PASO        MOCLDY    64  46  52 SE6       29.99S
$$


........................KEY........................
SKY/WX - SKY CONDITION/WEATHER
TMP    - TEMPERATURE IN FAHRENHEIT
DP     - DEW POINT IN FAHRENHEIT
RH     - RELATIVE HUMIDITY IN PERCENT
WIND   - DIRECTION AND SPEED IN MILES PER HOUR (MPH)
VRB    - VARIABLE WIND DIRECTION
PRES   - MEAN SEA LEVEL PRESSURE IN INCHES OF MERCURY
         F - FALLING PRESSURE   R - RISING PRESSURE
         S - STEADY PRESSURE
VSB    - VISIBILITY IN MILES
HX     - HEAT INDEX IN FAHRENHEIT
WCI    - WIND CHILL INDEX IN FAHRENHEIT
TC     - TEMPERATURE IN CELSIUS WHICH IS ALSO KNOWN AS
         TEMPERATURE IN CENTIGRADE
AFB    - AIR FORCE BASE
         LUKE AFB IS LUKE AIR FORCE BASE
         DAVIS-MONTHAN IS DAVIS-MONTHAN AIR FORCE BASE
NAS    - NAVAL AIR STATION
         EL CENTRO NAS IS EL CENTRO NAVAL AIR STATION
N/A    - NOT AVAILABLE



USA.gov is the U.S. government's official web portal to all federal, state and local government web resources and services.